Regional Weather Roundup
Issued by NWS

Home | Current Version | Previous Version | Graphics & Text | Print | Product List | Glossary On
Versions: 1 2 3 4 5 6 7 8 9 10 11 12 13 14 15 16 17 18 19 20 21 22 23 24 25 26 27 28 29 30 31 32 33 34 35 36 37 38 39 40 41 42 43 44 45 46 47 48 49 50
000
ASUS43 KDMX 281407
RWRIA

WEATHER ROUNDUP FOR IOWA
NATIONAL WEATHER SERVICE DES MOINES IA
900 AM CDT FRI AUG 28 2015

NOTE: "FAIR" INDICATES FEW OR NO CLOUDS BELOW 12,000 FEET WITH NO
SIGNIFICANT WEATHER AND/OR OBSTRUCTIONS TO VISIBILITY.

* - THESE STATIONS ARE NOT NWS STATIONS...THUS NOT UNDER NWS
QUALITY CONTROL.  THEY ALSO DO NOT REPORT WEATHER SUCH
AS PRECIPITATION OR FOG.

IAZ001>003-012>014-020>022-031>034-043>046-281500-
   NORTHWEST IOWA

CITY           SKY/WX    TMP DP  RH WIND       PRES   REMARKS
CARROLL *      CLOUDY    64  64 100 SW9G18    29.86R
CHEROKEE *     RAIN      64  64 100 E9        29.86S
DENISON *      CLOUDY    66  64  94 S14G30    29.81S
LE MARS *      LGT RAIN  64  64 100 E10G16    29.85S
ORANGE CITY *  DRIZZLE   64  63  94 E7        29.87S
SHELDON *      PTSUNNY   64  63  94 E13G22    29.88S FOG
SIOUX CITY     CLOUDY    66  63  90 E8        29.81S
SPENCER        RAIN      65  62  90 E17       29.91F FOG
STORM LAKE *   CLOUDY    63  63 100 SE12G18   29.87S FOG
$$

IAZ055>058-069>071-079>083-090>094-281500-
   SOUTHWEST IOWA

CITY           SKY/WX    TMP DP  RH WIND       PRES   REMARKS
ATLANTIC *     CLOUDY    66  64  94 S12G18    29.88S
AUDUBON *      LGT RAIN  63  61  94 SE16G24   29.88F
CLARINDA *     PTSUNNY   68  68 100 S7G15     29.91S
COUNCIL BLFS * CLOUDY    68  66  94 S14       29.85F
CRESTON *      CLOUDY    64  63  94 SE16G22   29.92F
HARLAN  *      CLOUDY    66 N/A N/A S14G20    29.89S
LAMONI         CLOUDY    66  62  87 SE13      29.95F
RED OAK *      CLOUDY    68  66  94 S9        29.88S
SHENANDOAH *   PTSUNNY   70  66  88 S12       29.89R
$$

IAZ047>049-059>061-072>074-084-281500-
   CENTRAL IOWA

CITY           SKY/WX    TMP DP  RH WIND       PRES   REMARKS
AMES           RAIN      62  62 100 SE18      29.94F FOG
ANKENY *       LGT RAIN  63  63 100 SE10G16   29.97F
CHARITON *     PTSUNNY   64  61  88 SE13      29.98R
DES MOINES     LGT RAIN  65  61  87 SE12      29.96S FOG
GRINNELL*      RAIN      61  59  94 SE8       30.05R
KNOXVILLE *    CLOUDY    63  59  88 E10       29.98F
MARSHALLTOWN   RAIN      62  60  93 E14       30.00F FOG
PELLA *        LGT RAIN  61  61 100 E8        30.03R
PERRY *        HVY RAIN  64  64 100 SE20      29.87F
$$

IAZ004>006-015-016-023>025-035-036-281500-
   NORTH CENTRAL IOWA

CITY           SKY/WX    TMP DP  RH WIND       PRES   REMARKS
ALGONA *       RAIN      64  63  94 E12       29.93F
CLARION *      CLOUDY    63  61  94 SE18G30   29.92F FOG
ESTHERVILLE    LGT RAIN  63  63 100 E13       29.95R FOG
FORT DODGE *   CLOUDY    63  61  94 E8        29.91R
MASON CITY     RAIN      62  61  96 SE13      30.03R FOG
FOREST CITY *  RAIN      61  61 100 E14       29.97S
IOWA FALLS *   RAIN      63  61  94 E12       29.99F
$$

IAZ007>011-017>019-026>030-037>042-050>054-066-281500-
   NORTHEAST IOWA

CITY           SKY/WX    TMP DP  RH WIND       PRES   REMARKS
CEDAR RAPIDS   CLOUDY    61  60  97 SE6       30.06R
CHARLES CITY * RAIN      61  61 100 E9        30.06F
CLINTON *      CLOUDY    63  57  82 SE8       30.12F
DECORAH *      LGT RAIN  61  61 100 SW5       30.08S
DUBUQUE        CLOUDY    62  59  90 VRB3      30.09S
MONTICELLO *   SUNNY     63  59  88 SE5       30.08S
OELWEIN *        N/A    N/A N/A N/A MISG        N/A
WATERLOO       RAIN      61  60  97 SE10      30.07R FOG
$$

IAZ064-065-067-068-078-281500-
   EAST CENTRAL IOWA

CITY           SKY/WX    TMP DP  RH WIND       PRES   REMARKS
DAVENPORT      CLOUDY    63  59  87 SE7       30.10F
IOWA CITY      CLOUDY    62  59  90 SE6       30.07R
MT. PLEASANT * CLOUDY    64  59  82 SE8       30.07S
MUSCATINE *    SUNNY     63  59  88 SE5       30.07F
QUAD CITIES    CLOUDY    63  59  87 E5        30.10S
$$

IAZ062-063-075>077-085>089-095>099-281500-
   SOUTHEAST IOWA

CITY           SKY/WX    TMP DP  RH WIND       PRES   REMARKS
BURLINGTON     CLOUDY    64  59  83 SE7       30.08F
FAIRFIELD *    MOSUNNY   63  59  88 SE14      30.03F
FORT MADISON * SUNNY     63  59  88 SE7       30.08F
KEOKUK *       SUNNY     64  61  88 SE8       30.07F
OSKALOOSA *    DRIZZLE   61  59  94 CALM      30.05R
CENTERVILLE *  PTSUNNY   63  61  94 SE10      30.03S
OTTUMWA        LGT RAIN  63  60  90 SW5       30.04R
WASHINGTON *     N/A    N/A N/A N/A MISG        N/A
$$

ABBREVIATIONS USED IN REMARKS
   TC - TEMPERATURES IN CELSIUS
  WCI - WIND CHILL INDEX
   HX - HEAT INDEX
  VSB - VISIBILITY
$$



USA.gov is the U.S. government's official web portal to all federal, state and local government web resources and services.